Date String (YYYY-MM-DD hh:mm:ss) UTC,Instrument flags,Ambient pressure (hPa),Sample flow (lpm),Bypass flow (lpm),Sample temperature (°C),Ambient temperature (°C),ASC tube jacket temperature (°C),LED temperature (°C),Box temperature (°C),Sample RH (%),Span deviation,Mass concentration (μg/m³),Mass concentration (μg/m³),Mass concentration (μg/m³)
DateTimeUTC,F1_M11,P_M11,Q1_M11,Q2_M11,T1_M11,T2_M11,T3_M11,T4_M11,T5_M11,U1_M11,ZSPAN_M11,X0_M11,X2_M11,X1_M11
2022-01-12 02:00:00,,0832.2,5.00,0.00,24.5,23.7,00.0,33.5,26.3,08.0,0000.0,0010.61,0004.65,0004.17
2022-01-12 02:01:00,,0832.2,5.01,0.00,24.5,23.7,00.0,33.5,26.3,08.0,0000.0,0010.35,0004.61,0004.14
2022-01-12 02:02:00,,0832.2,5.00,0.00,24.5,23.7,00.0,33.5,26.3,08.0,0000.0,0010.42,0004.61,0004.12
2022-01-12 02:03:00,,0832.2,5.01,0.00,24.5,23.7,00.0,33.5,26.3,08.0,0000.0,0010.41,0004.59,0004.11
2022-01-12 02:04:00,,0832.1,4.99,0.00,24.5,23.7,00.0,33.5,26.3,08.0,0000.0,0010.13,0004.56,0004.09
2022-01-12 02:05:00,,0832.0,5.00,0.00,24.5,23.7,00.0,33.5,26.3,08.0,0000.0,0010.09,0004.55,0004.08
2022-01-12 02:06:00,,0832.1,5.00,0.00,24.5,23.7,00.0,33.5,26.3,08.0,0000.0,0010.08,0004.56,0004.06
2022-01-12 02:07:00,,0832.3,5.01,0.00,24.5,23.7,00.0,33.5,26.3,08.0,0000.0,0009.97,0004.55,0004.05
2022-01-12 02:08:00,,0832.3,4.99,0.00,24.5,23.7,00.0,33.5,26.3,08.0,0000.0,0009.98,0004.55,0004.05
2022-01-12 02:09:00,,0832.3,5.01,0.00,24.5,23.7,00.0,33.5,26.3,08.1,0000.0,0009.97,0004.55,0004.07
2022-01-12 02:10:00,,0832.2,4.99,0.00,24.5,23.7,00.0,33.5,26.3,08.0,0000.0,0009.39,0004.57,0004.10
2022-01-12 02:11:00,,0832.2,4.99,0.00,24.5,23.7,00.0,33.5,26.3,08.0,0000.0,0008.23,0004.55,0004.09
2022-01-12 02:12:00,,0832.2,5.00,0.00,24.4,23.7,00.0,33.4,26.3,08.1,0000.0,0008.19,0004.55,0004.10
2022-01-12 02:13:00,,0832.2,4.99,0.00,24.4,23.7,00.0,33.4,26.2,08.1,0000.0,0007.98,0004.52,0004.09
2022-01-12 02:14:00,,0832.2,5.01,0.00,24.4,23.7,00.0,33.4,26.2,08.0,0000.0,0008.12,0004.50,0004.07
2022-01-12 02:15:00,,0832.1,5.00,0.00,24.4,23.6,00.0,33.4,26.2,08.0,0000.0,0008.24,0004.49,0004.07
2022-01-12 02:16:00,,0832.2,5.00,0.00,24.4,23.6,00.0,33.4,26.2,08.0,0000.0,0008.29,0004.51,0004.09
2022-01-12 02:17:00,,0832.3,5.01,0.00,24.4,23.6,00.0,33.4,26.2,08.0,0000.0,0008.59,0004.51,0004.10
2022-01-12 02:18:00,,0832.3,4.99,0.00,24.4,23.6,00.0,33.4,26.2,08.0,0000.0,0008.94,0004.53,0004.10
2022-01-12 02:19:00,,0832.1,5.00,0.00,24.4,23.6,00.0,33.4,26.2,08.0,0000.0,0008.98,0004.53,0004.09
2022-01-12 02:20:00,,0832.0,5.00,0.00,24.4,23.6,00.0,33.4,26.2,08.1,0000.0,0009.00,0004.51,0004.05
2022-01-12 02:21:00,,0832.0,5.01,0.00,24.4,23.6,00.0,33.4,26.1,08.2,0000.0,0008.81,0004.43,0003.99
2022-01-12 02:22:00,,0832.1,5.00,0.00,24.3,23.6,00.0,33.4,26.1,08.2,0000.0,0008.91,0004.37,0003.94
2022-01-12 02:23:00,,0832.1,5.01,0.00,24.3,23.5,00.0,33.4,26.1,08.3,0000.0,0009.38,0004.38,0003.92
2022-01-12 02:24:00,,0832.1,4.98,0.00,24.3,23.5,00.0,33.4,26.1,08.2,0000.0,0009.60,0004.36,0003.90
2022-01-12 02:25:00,,0832.1,5.00,0.00,24.3,23.5,00.0,33.4,26.1,08.2,0000.0,0010.13,0004.37,0003.90
2022-01-12 02:26:00,,0832.1,5.00,0.00,24.3,23.5,00.0,33.3,26.1,08.2,0000.0,0009.81,0004.41,0003.89
2022-01-12 02:27:00,,0832.1,5.01,0.00,24.3,23.5,00.0,33.3,26.1,08.1,0000.0,0009.87,0004.39,0003.86
2022-01-12 02:28:00,,0832.1,5.00,0.00,24.3,23.5,00.0,33.3,26.1,08.1,0000.0,0009.70,0004.35,0003.84
2022-01-12 02:29:00,,0832.0,5.01,0.00,24.3,23.5,00.0,33.3,26.1,08.1,0000.0,0009.23,0004.35,0003.84
2022-01-12 02:30:00,,0832.0,4.99,0.00,24.3,23.5,00.0,33.3,26.1,08.1,0000.0,0009.26,0004.35,0003.83
2022-01-12 02:31:00,,0832.2,5.01,0.00,24.3,23.5,00.0,33.3,26.1,08.1,0000.0,0009.28,0004.35,0003.83
2022-01-12 02:32:00,,0832.1,5.00,0.00,24.3,23.6,00.0,33.3,26.2,08.1,0000.0,0009.44,0004.38,0003.84
2022-01-12 02:33:00,,0832.1,5.00,0.00,24.3,23.5,00.0,33.3,26.1,08.2,0000.0,0009.54,0004.41,0003.85
2022-01-12 02:34:00,,0832.0,4.99,0.00,24.4,23.6,00.0,33.3,26.2,08.1,0000.0,0008.94,0004.40,0003.87
2022-01-12 02:35:00,,0832.1,5.01,0.00,24.3,23.6,00.0,33.3,26.2,08.1,0000.0,0009.87,0004.42,0003.87
2022-01-12 02:36:00,,0832.0,5.00,0.00,24.3,23.6,00.0,33.3,26.2,08.1,0000.0,0009.58,0004.43,0003.86
2022-01-12 02:37:00,,0831.9,5.00,0.00,24.3,23.6,00.0,33.3,26.1,08.0,0000.0,0009.54,0004.40,0003.85
2022-01-12 02:38:00,,0831.9,5.01,0.00,24.3,23.6,00.0,33.3,26.1,08.0,0000.0,0010.43,0004.39,0003.85
2022-01-12 02:39:00,,0831.9,5.00,0.00,24.3,23.5,00.0,33.3,26.1,07.9,0000.0,0010.66,0004.41,0003.84
2022-01-12 02:40:00,,0831.9,5.01,0.00,24.3,23.5,00.0,33.3,26.1,08.0,0000.0,0010.61,0004.38,0003.84
2022-01-12 02:41:00,,0832.0,4.98,0.00,24.3,23.6,00.0,33.3,26.1,08.1,0000.0,0010.49,0004.37,0003.85
2022-01-12 02:42:00,,0831.8,5.01,0.00,24.3,23.5,00.0,33.3,26.1,08.1,0000.0,0010.41,0004.36,0003.85
2022-01-12 02:43:00,,0831.7,5.00,0.00,24.3,23.5,00.0,33.3,26.1,08.1,0000.0,0010.39,0004.36,0003.85
2022-01-12 02:44:00,,0831.7,5.00,0.00,24.3,23.5,00.0,33.3,26.1,08.1,0000.0,0010.27,0004.35,0003.85
2022-01-12 02:45:00,,0831.6,4.99,0.00,24.3,23.5,00.0,33.3,26.0,08.1,0000.0,0010.72,0004.35,0003.84
2022-01-12 02:46:00,,0831.6,5.01,0.00,24.3,23.5,00.0,33.3,26.0,08.1,0000.0,0009.99,0004.34,0003.84
2022-01-12 02:47:00,,0831.5,5.00,0.00,24.3,23.5,00.0,33.3,26.0,08.1,0000.0,0009.57,0004.35,0003.85
2022-01-12 02:48:00,,0831.5,5.01,0.00,24.2,23.5,00.0,33.3,26.0,08.1,0000.0,0009.58,0004.37,0003.85
2022-01-12 02:49:00,,0831.4,5.00,0.00,24.2,23.5,00.0,33.3,25.9,08.2,0000.0,0008.60,0004.37,0003.86
2022-01-12 02:50:00,,0831.4,4.99,0.00,24.2,23.4,00.0,33.3,26.0,08.2,0000.0,0008.48,0004.36,0003.87
2022-01-12 02:51:00,,0831.3,5.01,0.00,24.2,23.4,00.0,33.3,26.0,08.2,0000.0,0008.51,0004.39,0003.88
2022-01-12 02:52:00,,0831.4,5.00,0.00,24.2,23.4,00.0,33.3,26.0,08.2,0000.0,0008.50,0004.38,0003.87
2022-01-12 02:53:00,,0831.3,4.98,0.00,24.2,23.4,00.0,33.2,25.9,08.2,0000.0,0008.62,0004.40,0003.88
2022-01-12 02:54:00,,0831.4,5.00,0.00,24.2,23.4,00.0,33.2,25.9,08.2,0000.0,0008.72,0004.41,0003.89
2022-01-12 02:55:00,,0831.3,5.01,0.00,24.2,23.3,00.0,33.2,25.9,08.0,0000.0,0008.81,0004.40,0003.89
2022-01-12 02:56:00,,0831.3,4.99,0.00,24.1,23.3,00.0,33.2,25.9,08.0,0000.0,0008.35,0004.37,0003.88
2022-01-12 02:57:00,,0831.2,5.00,0.00,24.1,23.3,00.0,33.2,25.8,08.1,0000.0,0007.93,0004.32,0003.89
2022-01-12 02:58:00,,0831.1,5.00,0.00,24.1,23.3,00.0,33.2,25.8,08.1,0000.0,0007.84,0004.30,0003.90
2022-01-12 02:59:00,,0831.1,4.99,0.00,24.1,23.3,00.0,33.2,25.8,08.1,0000.0,0007.78,0004.27,0003.90
